This is the latest recevied weather packets stored in our database for station/object AE5HO. If no packets are shown the sender has not sent any weather packets the latest 10 day(s).
| Time | Temp. | Humidity | Pressure | Rain* | Wind** | Luminosity | Snow |
|---|---|---|---|---|---|---|---|
| 1787683050 | 35° C | 47% | 1015 hPa | 0 mm | - | 148 W/m² | - |
| 1787682746 | 35° C | 46% | 1015 hPa | 0 mm | - | 164 W/m² | - |
| 1787682442 | 35° C | 45% | 1015.6 hPa | 0 mm | - | 158 W/m² | - |
| 1787682137 | 35° C | 46% | 1015.5 hPa | 0 mm | - | 165 W/m² | - |
| 1787681833 | 34.44° C | 49% | 1015.5 hPa | 0 mm | - | 148 W/m² | - |
| 1787681532 | 34.44° C | 48% | 1015.6 hPa | 0 mm | - | 141 W/m² | - |
| 1787681228 | 34.44° C | 48% | 1015.8 hPa | 0 mm | - | 120 W/m² | - |
| 1787680923 | 35° C | 49% | 1015.7 hPa | 0 mm | - | 108 W/m² | - |
| 1787680623 | 34.44° C | 48% | 1015.9 hPa | 0 mm | - | 111 W/m² | - |
| 1787680322 | 34.44° C | 48% | 1016.2 hPa | 0 mm | - | 100 W/m² | - |
| 1787680021 | 34.44° C | 49% | 1016.1 hPa | 0 mm | - | 104 W/m² | - |
| 1787679720 | 34.44° C | 48% | 1016.2 hPa | 0 mm | - | 115 W/m² | - |
| 1787679416 | 33.89° C | 50% | 1016.2 hPa | 0 mm | - | 113 W/m² | - |
| 1787679112 | 33.33° C | 50% | 1016.5 hPa | 0 mm | - | 130 W/m² | - |
| 1787678811 | 33.33° C | 50% | 1016.6 hPa | 0 mm | - | 192 W/m² | - |
| 1787678507 | 33.89° C | 50% | 1016.8 hPa | 0 mm | - | 164 W/m² | - |
| 1787678206 | 33.33° C | 50% | 1016.8 hPa | 0 mm | - | 139 W/m² | - |
| 1787677901 | 33.33° C | 49% | 1017.3 hPa | 0 mm | - | 450 W/m² | - |
| 1787677601 | 33.33° C | 51% | 1017.2 hPa | 0 mm | - | 503 W/m² | - |
| 1787677300 | 33.33° C | 50% | 1017 hPa | 0 mm | - | 465 W/m² | - |
| 1787676999 | 32.78° C | 51% | 1017.1 hPa | 0 mm | - | 472 W/m² | - |
| 1787676695 | 32.78° C | 51% | 1017 hPa | 0 mm | - | 422 W/m² | - |
| 1787676391 | 32.78° C | 51% | 1017.3 hPa | 0 mm | - | 406 W/m² | - |
| 1787676087 | 32.78° C | 50% | 1017.1 hPa | 0 mm | - | 460 W/m² | - |
| 1787675783 | 33.33° C | 51% | 1017.2 hPa | 0 mm | - | 345 W/m² | - |
* Rain latest hour (hover to see other rain measurements)
** Current wind speed in m/s (hover to see current wind gust speed)